Location: Newark
(42.7133°N, 87.7910°W)
Time: 16:28:22
(UTC+00:00)

A-11 Canister half - All Passes

Search period start: 23 October 2019 00:00
Search period end: 02 November 2019 00:00
Orbit: 1527 x 1682 km, 47.3° (Epoch: 22 October)

Date Brightness Start Highest point End Pass type
(mag) Time Alt. Az. Time Alt. Az. Time Alt. Az.
23 Oct - 00:26:48 10° SW 00:36:01 56° SE 00:45:02 10° ENE visible
23 Oct - 02:31:26 10° WSW 02:40:53 76° NNW 02:50:14 10° ENE visible
23 Oct - 04:37:17 10° WNW 04:46:38 70° N 04:55:58 10° E visible
23 Oct - 06:42:35 10° WNW 06:51:50 72° SSW 07:01:11 10° SE night (unlit)
23 Oct - 08:48:37 10° W 08:55:40 25° SW 09:02:49 10° S visible
23 Oct - 22:06:07 10° SSE 22:11:00 15° SE 22:15:50 10° E daylight
24 Oct - 00:05:15 10° SW 00:14:26 54° SE 00:23:24 10° ENE visible
24 Oct - 02:09:46 10° WSW 02:19:14 77° NNW 02:28:36 10° ENE visible
24 Oct - 04:15:38 10° WNW 04:24:58 69° N 04:34:17 10° E visible
24 Oct - 06:20:58 10° WNW 06:30:13 74° SSW 06:39:35 10° SE night (unlit)
24 Oct - 08:26:53 10° WNW 08:34:07 26° SW 08:41:28 10° S visible
24 Oct - 21:45:04 10° SSE 21:49:28 14° ESE 21:53:49 10° E daylight
24 Oct - 23:43:42 10° SSW 23:52:50 52° SE 00:01:45 10° ENE visible
25 Oct - 01:48:06 10° WSW 01:57:36 79° NNW 02:06:57 10° ENE visible
25 Oct - 03:53:58 10° WNW 04:03:19 68° N 04:12:37 10° E visible
25 Oct - 05:59:19 10° WNW 06:08:37 76° SSW 06:17:59 10° SE night (unlit)
25 Oct - 08:05:08 10° WNW 08:12:34 28° SW 08:20:06 10° S night (unlit)
25 Oct - 21:24:07 10° SSE 21:27:56 13° ESE 21:31:43 10° E daylight
25 Oct - 23:22:09 10° SSW 23:31:15 50° SE 23:40:07 10° ENE visible
26 Oct - 01:26:25 10° WSW 01:35:57 80° NNW 01:45:19 10° ENE visible
26 Oct - 03:32:18 10° WNW 03:41:40 68° N 03:50:58 10° E visible
26 Oct - 05:37:42 10° WNW 05:47:01 79° SSW 05:56:22 10° SE visible
26 Oct - 07:43:25 10° WNW 07:51:01 29° SW 07:58:43 10° S night (unlit)
26 Oct - 21:03:20 10° SE 21:06:25 12° ESE 21:09:28 10° ESE daylight
26 Oct - 23:00:38 10° SSW 23:09:40 47° SE 23:18:28 10° ENE visible
27 Oct - 01:04:45 10° WSW 01:14:19 82° NNW 01:23:42 10° ENE visible
27 Oct - 03:10:38 10° WNW 03:20:00 67° N 03:29:17 10° E visible
27 Oct - 05:16:04 10° WNW 05:25:24 81° SSW 05:34:46 10° ESE visible
27 Oct - 07:21:43 10° WNW 07:29:28 31° SW 07:37:19 10° S night (unlit)
27 Oct - 20:42:50 10° SE 20:44:53 11° ESE 20:46:55 10° ESE daylight
27 Oct - 22:39:06 10° SSW 22:48:05 45° SE 22:56:49 10° ENE daylight
28 Oct - 00:43:05 10° WSW 00:52:40 84° NNW 01:02:04 10° ENE visible
28 Oct - 02:48:57 10° W 02:58:21 67° N 03:07:38 10° E visible
28 Oct - 04:54:25 10° WNW 05:03:47 83° SSW 05:13:09 10° ESE visible
28 Oct - 07:00:01 10° WNW 07:07:55 33° SW 07:15:55 10° SSE night (unlit)
28 Oct - 22:17:35 10° SSW 22:26:30 43° SE 22:35:10 10° ENE daylight
29 Oct - 00:21:25 10° WSW 00:31:02 86° NNW 00:40:26 10° ENE visible
29 Oct - 02:27:17 10° W 02:36:41 67° N 02:45:58 10° E visible
29 Oct - 04:32:47 10° WNW 04:42:10 86° SSW 04:51:31 10° ESE visible
29 Oct - 06:38:18 10° WNW 06:46:22 34° SW 06:54:28 10° SSE night (unlit)
29 Oct - 21:56:05 10° SSW 22:04:55 41° SE 22:13:30 10° ENE daylight
29 Oct - 23:59:46 10° WSW 00:09:24 87° NNW 00:18:49 10° ENE visible
30 Oct - 02:05:36 10° W 02:15:01 67° N 02:24:18 10° E visible
30 Oct - 04:11:08 10° WNW 04:20:33 88° SSW 04:29:54 10° ESE visible
30 Oct - 06:16:37 10° WNW 06:24:48 36° SW 06:33:02 10° SSE night (unlit)
30 Oct - 21:34:35 10° SSW 21:43:20 39° SE 21:51:51 10° ENE daylight
30 Oct - 23:38:06 10° WSW 23:47:45 89° NNW 23:57:11 10° ENE visible
31 Oct - 01:43:54 10° W 01:53:21 67° N 02:02:39 10° E visible
31 Oct - 03:49:30 10° WNW 03:58:55 90° SSE 04:08:17 10° ESE visible
31 Oct - 05:54:56 10° WNW 06:03:15 38° SW 06:11:35 10° SSE night (unlit)
31 Oct - 21:13:06 10° SSW 21:21:45 38° SE 21:30:11 10° ENE daylight
31 Oct - 23:16:26 10° WSW 23:26:07 89° SSE 23:35:33 10° ENE visible
01 Nov - 01:22:13 10° W 01:31:42 67° N 01:40:59 10° E visible
01 Nov - 03:27:51 10° WNW 03:37:18 88° NNE 03:46:39 10° ESE visible
01 Nov - 05:33:16 10° WNW 05:41:41 40° SW 05:50:07 10° SSE visible
01 Nov - 20:51:38 10° SSW 21:00:11 36° SE 21:08:30 10° ENE daylight
01 Nov - 22:54:47 10° WSW 23:04:29 86° SSE 23:13:55 10° ENE visible
